Location: Escondido Hill
(38.9119°N, 104.7815°W)
Time: 18:52:35
(UTC-07:00)

N. Korean satellite - Pass Details

Date: 21 October 2019
Orbit: 456 x 506 km, 97.2° (Epoch: 16 November)

Event Time Altitude Azimuth Distance (km) Brightness Sun altitude
Rises 06:14:43 0° 24° (NNE) 2,560 10.5 -12.3°
Reaches altitude 10° 06:17:01 10° 37° (NE) 1,683 9.8 -11.9°
Maximum altitude 06:20:08 26° 96° (E) 993 9.1 -11.3°
Drops below altitude 10° 06:23:15 10° 155° (SSE) 1,692 9.7 -10.7°
Sets 06:25:33 0° 168° (SSE) 2,576 10.5 -10.2°
